www.pogodaiklimat.ru

Погода и климат >> Архив погоды >> Индия >> Kozhikode


ПОГОДА в Kozhikode

  • Прогноз погоды в Kozhikode
  • Монитор погоды в Kozhikode
  • Климат города

АРХИВ ПОГОДЫ в Kozhikode

Время (UTC), дата Ветер
(напр.,м/с)
 
Видим.   Явления Облачность Т
(С)
Тd
(С)
f
(%)
Тe
(С)
Тes
(С)
Комфортность P
(гПа)
Po
(гПа)
Тmin
(С)
Tmax
(С)
R
(мм)
R24
(мм)
S
(см)
21 18.04 штиль 0 4000 м {дождь, морось} 8/3 600 м
[Sc diur, vesp Ac As Ci sp]
+28.2 +26.5 91 +44 +44 опасность
перегрева
1008.7 1009.0 7
00 19.04 штиль 0 4000 м 6/1 600 м
[Sc diur, vesp Ac As Ci sp]
+27.8 +26.4 92 +42 +42 опасность
перегрева
1008.8 1009.0 7
03 19.04 штиль 0 10 км 8/3 600 м
[Cb calv Ac As Ci sp]
+28.6 +27.2 92 +45 +49 опасность
перегрева
1010.5 1011.0 +27.4 +35.3 7
06 19.04 З 1 10 км 6/3 600 м
[Sc diur, vesp Ac As Ci fib]
+32.0 +27.3 76 +50 +64 опасность
перегрева
1010.0 1010.0
09 19.04 З 2 10 км 6/3 600 м
[Sc diur, vesp Ac As Ci fib]
+34.0 +27.4 69 +53 +63 опасность
перегрева
1007.2 1007.0
12 19.04 З 2 10 км 9/4 600 м
[Cb calv Ac As Ci sp]
+32.8 +27.6 74 +52 +53 опасность
перегрева
1006.3 1006.0 +34.8
15 19.04 С 1 4000 м в посл. час гроза {дождь} 10/4 600 м
[Cb calv Ac As]
+25.6 +21.7 79 +33 +33 очень
душно
1009.2 1009.0 1
18 19.04 штиль 0 4000 м 9/3 600 м
[Sc diur, vesp Ac As Ci sp]
+26.0 +22.1 79 +34 +34 очень
душно
1010.3 1010.0 1
21 19.04 штиль 0 4000 м 8/3 600 м
[Sc diur, vesp Ac As Ci sp]
+26.4 +23.5 84 +36 +36 очень
душно
1008.6 1009.0 1
00 20.04 штиль 0 4000 м 6/1 600 м
[Sc diur, vesp As op]
+26.4 +24.4 89 +37 +37 очень
душно
1008.0 1008.0 1
03 20.04 штиль 0 10 км 9/3 600 м
[Sc diur, vesp Ac trans Ci sp]
+28.0 +26.4 91 +43 +46 опасность
перегрева
1009.9 1010.0 +25.2 +34.8 1
06 20.04 З 2 10 км 6/1 600 м
[Sc diur, vesp Ac trans Ci fib]
+32.6 +26.7 71 +50 +63 опасность
перегрева
1010.5 1011.0
09 20.04 З 2 10 км 6/3 600 м
[Sc diur, vesp Ac trans Ci fib]
+33.8 +25.4 62 +48 +58 опасность
перегрева
1007.6 1008.0
12 20.04 З 2 10 км 9/3 600 м
[Sc diur, vesp Ac As Ci sp]
+32.6 +26.5 70 +49 +50 опасность
перегрева
1007.0 1007.0 +35.4
15 20.04 СЗ 2 4000 м 8/3 600 м
[Sc diur, vesp Ac As Ci fib]
+29.8 +23.7 70 +41 +41 опасность
перегрева
1008.7 1009.0
18 20.04 штиль 0 4000 м 4/3 600 м
[Sc diur, vesp Ci fib]
+28.4 +23.5 75 +39 +39 очень
душно
1009.6 1010.0
21 20.04 штиль 0 4000 м 5/3 600 м
[Sc diur, vesp Ci fib]
+27.4 +23.9 81 +38 +38 очень
душно
1007.6 1008.0
00 21.04 штиль 0 4000 м 4/3 600 м
[Sc diur, vesp Ci fib]
+27.4 +23.9 81 +38 +38 очень
душно
1007.3 1007.0
03 21.04 штиль 0 10 км 3/1 600 м
[Sc diur, vesp Ci sp]
+30.0 +26.1 80 +45 +53 опасность
перегрева
1009.2 1009.0 +27.2 +35.4
06 21.04 ЮЗ 2 10 км 1/0
[Ci fib]
+32.0 +27.0 75 +50 +70 опасность
перегрева
1009.7 1010.0
09 21.04 ЮЗ 2 10 км 1/1 600 м
[Sc diur, vesp]
+35.4 +27.8 65 +56 +72 опасность
перегрева
1006.7 1007.0
12 21.04 З 2 10 км 10/4 600 м
[Sc diur, vesp Ac As Ci sp]
+33.0 +26.0 67 +49 +49 опасность
перегрева
1006.2 1006.0 +36.2
15 21.04 штиль 0 4000 м 8/4 600 м
[Sc diur, vesp Ac trans Ci sp]
+31.0 +25.3 72 +45 +45 опасность
перегрева
1008.8 1009.0
18 21.04 штиль 0 4000 м 3/1 600 м
[Sc diur, vesp Ci sp]
+30.0 +25.3 76 +44 +44 опасность
перегрева
1008.9 1009.0
00 22.04 штиль 0 4000 м {дождь} 8/3 600 м
[Sc diur, vesp Ac trans Ci sp]
+27.6 +25.3 87 +40 +40 очень
душно
1008.9 1009.0 0.4
03 22.04 штиль 0 10 км 10/4 600 м
[Sc diur, vesp Ac As Ci sp]
+28.4 +24.4 79 +40 +43 очень
душно
1010.2 1010.0 +27.0 +36.2 0.4
06 22.04 ЮЗ 2 10 км 8/3 600 м
[Sc diur, vesp Ac As Ci sp]
+31.0 +25.3 72 +45 +55 опасность
перегрева
1011.0 1011.0
09 22.04 ЮЗ 2 10 км 9/3 600 м
[Sc diur, vesp Ac As Ci fib]
+33.0 +26.0 67 +49 +55 опасность
перегрева
1008.7 1009.0
12 22.04 З 2 10 км 10/4 600 м
[Sc diur, vesp Ac As]
+31.6 +26.0 72 +28 +29 жарко 1007.6 1008.0 +33.4
15 22.04 штиль 0 4000 м {дождь} 10/4 300 м
[Sc diur, vesp Ac As]
+28.0 +25.7 87 +41 +41 опасность
перегрева
1009.9 1010.0 0.8
18 22.04 штиль 0 4000 м 5/1 600 м
[Sc diur, vesp Ac trans]
+27.8 +25.8 89 +41 +41 опасность
перегрева
1010.4 1010.0 0.8
21 22.04 штиль 0 4000 м 5/1 600 м
[Sc diur, vesp Ac trans]
+27.0 +25.6 92 +40 +40 очень
душно
1010.0 1010.0 0.8
00 23.04 штиль 0 4000 м 5/3 600 м
[Sc diur, vesp Ci sp]
+26.8 +24.5 87 +38 +38 очень
душно
1009.0 1009.0 0.8
03 23.04 Ю 2 10 км 5/1 600 м
[Sc diur, vesp Ac trans]
+29.0 +26.2 85 +44 +49 опасность
перегрева
1010.3 1010.0 +26.2 +33.4 0.8
06 23.04 ЮВ 2 10 км 4/1 600 м
[Sc diur, vesp Ci sp]
+33.6 +27.3 70 +53 +72 опасность
перегрева
1009.7 1010.0
09 23.04 ЮЗ 2 10 км 4/1 600 м
[Sc diur, vesp Ci sp]
+34.4 +27.0 65 +52 +67 опасность
перегрева
1007.0 1007.0
12 23.04 ЮЗ 2 10 км 10/4 600 м
[Sc diur, vesp Ac As Ci sp]
+33.4 +27.4 71 +53 +53 опасность
перегрева
1006.6 1007.0 +35.2
15 23.04 ЮЗ 2 4000 м гроза без осадков {дождь} 10/5 600 м
[Cb cap Ac As]
+26.4 +23.0 82 +35 +35 очень
душно
1009.6 1010.0 0.8
18 23.04 штиль 0 4000 м {гроза, дождь} 10/4 600 м
[Sc diur, vesp Ac As Ci sp]
+25.0 +23.5 91 +34 +34 очень
душно
1010.8 1011.0 2
21 23.04 штиль 0 4000 м 8/3 600 м
[Sc diur, vesp Ac trans Ci sp]
+25.0 +23.5 91 +34 +34 очень
душно
1008.8 1009.0 2
00 24.04 штиль 0 4000 м 8/3 600 м
[Sc diur, vesp Ac trans Ci sp]
+25.0 +23.5 91 +34 +34 очень
душно
1009.0 1009.0 2
03 24.04 штиль 0 10 км 3/1 600 м
[Sc diur, vesp Ci sp]
+28.0 +25.2 85 +41 +48 опасность
перегрева
1011.0 1011.0 +24.8 +35.2 2
06 24.04 З 1 10 км 3/3 600 м
[Sc diur, vesp]
+34.4 +26.1 62 +50 +67 опасность
перегрева
1011.1 1011.0
09 24.04 штиль 0 10 км 5/3 600 м
[Sc diur, vesp Ci sp]
+34.6 +27.2 66 +53 +68 опасность
перегрева
1008.0 1008.0
12 24.04 СЗ 3 10 км гроза, ливневой дождь 10/4 600 м
[Cb calv Ac As]
+33.0 +26.6 69 +50 +50 опасность
перегрева
1008.0 1008.0 +35.6 0.6
15 24.04 СЗ 2 4000 м {гроза, дождь} 9/3 600 м
[Sc diur, vesp Ac As]
+29.4 +26.3 83 +45 +45 опасность
перегрева
1009.8 1010.0 3
18 24.04 штиль 0 4000 м 8/3 600 м
[Sc diur, vesp Ac trans]
+28.0 +24.9 83 +40 +40 очень
душно
1010.2 1010.0 3
21 24.04 штиль 0 4000 м 8/3 600 м
[Sc diur, vesp Ac trans]
+27.6 +24.4 83 +39 +39 очень
душно
1008.1 1008.0 3
00 25.04 штиль 0 4000 м 4/1 600 м
[Sc diur, vesp Ci sp]
+26.8 +24.5 87 +38 +38 очень
душно
1008.8 1009.0 3
03 25.04 штиль 0 10 км 3/1 600 м
[Sc diur, vesp Ci sp]
+28.8 +25.7 83 +43 +50 опасность
перегрева
1010.6 1011.0 +25.8 +35.6 3
06 25.04 СЗ 1 10 км 5/5 600 м
[Sc diur, vesp]
+34.0 +25.6 62 +49 +61 опасность
перегрева
1010.7 1011.0
09 25.04 З 1 10 км 4/4 600 м
[Sc diur, vesp]
+35.4 +26.6 61 +53 +64 опасность
перегрева
1007.7 1008.0
12 25.04 З 2 10 км 5/3 600 м
[Sc diur, vesp Ac trans Ci fib]
+33.0 +26.6 69 +50 +51 опасность
перегрева
1006.2 1006.0 +36.1
15 25.04 штиль 0 4000 м 3/3 600 м
[Sc diur, vesp]
+30.4 +26.2 78 +46 +46 опасность
перегрева
1008.6 1009.0
18 25.04 штиль 0 4000 м 5/3 600 м
[Sc diur, vesp Ci sp]
+30.0 +26.4 81 +46 +46 опасность
перегрева
1009.3 1009.0

 

Местоположение метеостанции Kozhikode (Kerala, Индия): широта 11.25 долгота 75.78 высота над уровнем моря 5 м.

В архиве по умолчанию представлена погода в Kozhikode за последнюю неделю. Архивные данные за месяц целиком и за предыдущие месяцы, начиная с января 2011 года, Вы можете получить, выбрав интересующий диапазон дат из раскрывающегося списка и нажав кнопку "Ввод!".


*Определитесь, кто Вы:
робот инопланетянин человек

Внимание! Время в таблицах - всемирное. Для получения местного времени необходимо прибавить поправку, которая в Kozhikode равна 5.5 ч.

Смотрите также архив погоды в соседних городах и на ближайших метеорологических станциях:

Погода в Karipur (Kerala, Индия) (23 км)
Погода в Cannanore (Kerala, Индия) (81 км)
Погода в Thrissur (Kerala, Индия) (94 км)
Погода в Udhagamandalam (Tamil Nadu, Индия) (105 км)
Погода в Palakkad (Kerala, Индия) (109 км)
Погода в Coonoor (Tamil Nadu, Индия) (112 км)
Погода в Madikeri (Karnataka, Индия) (130 км)
Погода в Kochi (Kerala, Индия) (140 км)
Погода в Coimbatore (Tamil Nadu, Индия) (141 км)
Погода в Chamarajnagar (Karnataka, Индия) (146 км)

Пояснения к столбцам:

Ветер - указаны скорость ветра в м/с - средняя за 10 мин, порывы в срок и между сроками (в фигурных скобках) и направление, откуда дует ветер: С - северный, СВ - северо-восточный, В - восточный, ЮВ - юго-восточный, Ю - южный, ЮЗ - юго-западный, З - западный, СЗ - северо-западный.
Видимость - горизонтальная дальность видимости в метрах или километрах. При видимости от 1 до 10 км при отсутствии осадков обычно наблюдается дымка, при ухудшении видимости до 1 км и менее - туман. В сухую погоду видимость может ухудшаться дымом, пылью или мглою.
Явления - указаны атмосферные явления, наблюдавшиеся в срок или в последний час перед сроком; фигурными скобками обозначены явления, наблюдавшиеся между сроками (за 1-3 часа до срока); квадратными скобками обозначены град или гололедные отложения с указанием их диаметра в мм.
Облачность - указаны через наклонную черту общая и нижняя облачность в баллах и высота нижней границы облаков в метрах; квадратными скобками обозначены формы облаков: Ci - перистые, Cs - перисто-слоистые, Cc - перисто-кучевые, Ac - высококучевые, As - высокослоистые, Sc - слоисто-кучевые, Ns - слоисто-дождевые, Cu - кучевые, Cb - кучево-дождевые. Подробнее классификацию облаков см. в Атласе облаков (PDF).
T - Температура воздуха - температура, измеренная на высоте 2 м над землей.
Td - Температура точки росы - температура, при понижении до которой содержащийся в воздухе водяной пар достигнет насыщения.
f - Относительная влажность воздуха - влажноcть воздуха, измеренная на высоте 2 м над землей.
Te - Эффективная температура - температура, которую ощущает одетый по сезону человек в тени. Характеристика душности погоды. При расчете учитывается влияние влажности воздуха и скорости ветра на теплоощущения человека.
Tes - Эффективная температура на солнце - температура, которую ощущает человек, с поправкой на солнечный нагрев. Характеристика знойности погоды. Зависит от высоты солнца над горизонтом, облачности и скорости ветра. Ночью, в пасмурную погоду, а также при ветре 12 м/с и более поправка равна нулю.
P - Атмосферное давление - приведенное к уровню моря атмосферное давление.
Po - Атмосферное давление - измеренное на уровне метеостанции атмосферное давление.
Tmin - Минимальная температура - минимум температуры воздуха на высоте 2 м над землей.
Tmax - Максимальная температура - максимум температуры воздуха на высоте 2 м над землей.
R - Количество осадков - Количество выпавших осадков за период времени, мм. При наведении курсора мыши на число - период времени, за который выпало указанное количество осадков.
R24 - Количество осадков - Количество выпавших осадков за 24 часа, мм.
S - Снежный покров - Высота снежного покрова, см. При наведении курсора мыши на число - состояние снежного покрова и степень покрытия местности в баллах.